Weather History for Newport News, VA

Change the Weather History Date:

Tuesday, July 23, 2013

  Actual Average Record
Temperature  
Mean Temperature 85 °F -  
Max Temperature 91 °F 88 °F 103 °F (1952)
Min Temperature 79 °F 70 °F 62 °F (1974)
Cooling Degree Days 20    
Growing Degree Days 35 (Base 50)    
Moisture  
Dew Point 72 °F    
Average Humidity 68    
Maximum Humidity 79    
Minimum Humidity 47    
Precipitation  
Precipitation 0.00 in - - ()
Sea Level Pressure  
Sea Level Pressure 29.74 in    
Wind  
Wind Speed 9 mph (SW)    
Max Wind Speed 15 mph    
Max Gust Speed 21 mph    
Visibility 10 miles    
Events      
Averages and records for this station are not official NWS values.
T = Trace of Precipitation, MM = Missing Value Source: NWS Daily Summary

Daily Weather History Graph

Daily Weather History Graph

Search for Another Location

Airport:

Trip Planner

Search our weather history database for the weather conditions in past years. The results will help you decide how hot, cold, wet, or windy it might be!

Date:

Astronomy

Jul. 23, 2013 Rise Set
Actual Time 6:03 AM EDT 8:20 PM EDT
Civil Twilight 5:34 AM EDT 8:50 PM EDT
Nautical Twilight 4:58 AM EDT 9:26 PM EDT
Astronomical Twilight 4:18 AM EDT 10:05 PM EDT
Moon 8:51 PM EDT (7/23) 7:06 AM EDT (7/23)
Length of Visible Light 15h 15m
Length of Day
14h 16m
Full, 99% of the Moon is Illuminated
Jul 23
Full
Jul 29
Last Quarter
Aug 6
New
Aug 14
First Quarter
Aug 20
Full

Hourly Weather History & Observations

Time (EDT) Temp. Heat Index Dew Point Humidity Pressure Visibility Wind Dir Wind Speed Gust Speed Precip Events Conditions
12:54 AM 80.1 °F 84.2 °F 73.0 °F 79% 29.80 in 10.0 mi SSW 6.9 mph - N/A   Clear
1:54 AM 80.1 °F 84.2 °F 73.0 °F 79% 29.78 in 10.0 mi SW 6.9 mph - N/A   Clear
2:54 AM 80.1 °F 84.2 °F 73.0 °F 79% 29.77 in 10.0 mi SW 6.9 mph - N/A   Scattered Clouds
3:54 AM 80.1 °F 83.8 °F 72.0 °F 76% 29.76 in 10.0 mi SW 12.7 mph - N/A   Clear
4:54 AM 79.0 °F - 72.0 °F 79% 29.75 in 10.0 mi SW 8.1 mph - N/A   Clear
5:54 AM 79.0 °F - 72.0 °F 79% 29.75 in 10.0 mi SW 8.1 mph - N/A   Clear
6:54 AM 80.1 °F 83.8 °F 72.0 °F 76% 29.77 in 10.0 mi SW 10.4 mph - N/A   Clear
7:54 AM 81.0 °F 85.2 °F 72.0 °F 74% 29.77 in 10.0 mi SW 12.7 mph - N/A   Scattered Clouds
8:06 AM 80.6 °F 84.6 °F 71.6 °F 74% 29.77 in 10.0 mi SW 11.5 mph - N/A   Mostly Cloudy
8:40 AM 82.4 °F 88.2 °F 73.4 °F 74% 29.76 in 10.0 mi WSW 12.7 mph - N/A   Scattered Clouds
8:54 AM 82.0 °F 87.4 °F 73.0 °F 74% 29.75 in 10.0 mi SW 13.8 mph 20.7 mph N/A   Scattered Clouds
9:06 AM 82.4 °F 87.2 °F 71.6 °F 70% 29.76 in 10.0 mi SW 15.0 mph - N/A   Mostly Cloudy
9:35 AM 82.4 °F 88.2 °F 73.4 °F 74% 29.75 in 10.0 mi SW 11.5 mph - N/A   Overcast
9:54 AM 82.0 °F 86.7 °F 72.0 °F 71% 29.75 in 10.0 mi SW 11.5 mph - N/A   Overcast
10:54 AM 84.0 °F 90.2 °F 73.0 °F 69% 29.74 in 10.0 mi SW 11.5 mph - N/A   Mostly Cloudy
11:18 AM 86.0 °F 93.4 °F 73.4 °F 66% 29.74 in 10.0 mi SSW 11.5 mph - N/A   Mostly Cloudy
11:54 AM 86.0 °F 93.0 °F 73.0 °F 65% 29.73 in 10.0 mi SW 10.4 mph - N/A   Mostly Cloudy
12:12 PM 87.8 °F 95.6 °F 73.4 °F 62% 29.73 in 10.0 mi SW 11.5 mph 17.3 mph N/A   Mostly Cloudy
12:23 PM 87.8 °F 95.6 °F 73.4 °F 62% 29.73 in 10.0 mi SSW 11.5 mph - N/A   Scattered Clouds
12:54 PM 84.9 °F 90.1 °F 71.1 °F 63% 29.73 in 10.0 mi West 9.2 mph - N/A   Mostly Cloudy
1:54 PM 89.1 °F 96.0 °F 72.0 °F 57% 29.72 in 10.0 mi WSW 9.2 mph - 0.00 in   Mostly Cloudy
2:54 PM 90.0 °F 96.9 °F 72.0 °F 55% 29.70 in 10.0 mi West 9.2 mph - 0.00 in   Scattered Clouds
3:54 PM 91.0 °F 97.6 °F 71.1 °F 52% 29.69 in 10.0 mi West 10.4 mph 16.1 mph N/A   Mostly Cloudy
4:54 PM 91.9 °F 96.9 °F 69.1 °F 47% 29.68 in 10.0 mi West 10.4 mph - N/A   Partly Cloudy
5:54 PM 91.0 °F 95.6 °F 69.1 °F 48% 29.68 in 10.0 mi West 11.5 mph - N/A   Partly Cloudy
6:54 PM 89.1 °F 94.1 °F 70.0 °F 53% 29.68 in 10.0 mi WSW 8.1 mph - N/A   Scattered Clouds
8:54 PM 84.9 °F 89.4 °F 70.0 °F 61% 29.70 in 10.0 mi WSW 6.9 mph - N/A   Clear
9:54 PM 82.9 °F 87.5 °F 71.1 °F 67% 29.73 in 10.0 mi SW 3.5 mph - N/A   Clear
10:54 PM 82.9 °F 88.0 °F 72.0 °F 69% 29.74 in 10.0 mi WSW 5.8 mph - N/A   Clear
11:54 PM 82.0 °F 86.7 °F 72.0 °F 71% 29.74 in 10.0 mi SW 4.6 mph - N/A   Clear